Location: College Park
(38.9810°N, 76.9370°W)
Time: 15:13:35
(UTC-05:00)

N. Korean satellite - Pass Details

Date: 08 January 2018
Orbit: 458 x 515 km, 97.2° (Epoch: 21 January)

Event Time Altitude Azimuth Distance (km) Brightness Sun altitude
Rises 06:50:39 0° 11° (N) 2,515 10.1 -7.2°
Reaches altitude 10° 06:52:43 10° 12° (NNE) 1,627 9.1 -6.8°
Maximum altitude 06:56:12 89° 94° (E) 467 6.5 -6.2°
Drops below altitude 10° 06:59:38 10° 192° (SSW) 1,598 9.4 -5.6°
Sets 07:01:39 0° 193° (SSW) 2,465 10.3 -5.2°
